This is the latest recevied weather packets stored in our database for station/object KC8BSD. If no packets are shown the sender has not sent any weather packets the latest 10 day(s).
| Time | Temp. | Humidity | Pressure | Rain* | Wind** | Luminosity | Snow |
|---|---|---|---|---|---|---|---|
| 1777439218 | 8.33° C | 93% | 1015.4 hPa | 0 mm | - | 0 W/m² | - |
| 1777438915 | 8.33° C | 93% | 1015.4 hPa | 0 mm | - | 0 W/m² | - |
| 1777438613 | 8.33° C | 93% | 1015.4 hPa | 0 mm | - | 0 W/m² | - |
| 1777438309 | 8.33° C | 93% | 1015.2 hPa | 0 mm | - | 0 W/m² | - |
| 1777438003 | 8.33° C | 93% | 1015 hPa | 0 mm | - | 0 W/m² | - |
| 1777437701 | 8.33° C | 93% | 1015.2 hPa | 0 mm | - | 0 W/m² | - |
| 1777437397 | 8.33° C | 93% | 1015.2 hPa | 0 mm | - | 0 W/m² | - |
| 1777437094 | 8.33° C | 93% | 1015.1 hPa | 0 mm | - | 0 W/m² | - |
| 1777436790 | 7.78° C | 92% | 1014.9 hPa | 0 mm | - | 0 W/m² | - |
| 1777436487 | 7.78° C | 92% | 1015.1 hPa | 0 mm | - | 0 W/m² | - |
| 1777436184 | 7.78° C | 92% | 1015.3 hPa | 0 mm | - | 0 W/m² | - |
| 1777435880 | 8.33° C | 92% | 1015.3 hPa | 0 mm | - | 0 W/m² | - |
| 1777435576 | 8.33° C | 92% | 1015.3 hPa | 0 mm | - | 0 W/m² | - |
| 1777435272 | 8.33° C | 91% | 1015.4 hPa | 0 mm | - | 0 W/m² | - |
| 1777434971 | 8.33° C | 91% | 1015.4 hPa | 0 mm | - | 0 W/m² | - |
| 1777434667 | 8.89° C | 91% | 1015.5 hPa | 0 mm | - | 0 W/m² | - |
| 1777434362 | 8.89° C | 91% | 1015.5 hPa | 0 mm | - | 0 W/m² | - |
| 1777434060 | 8.89° C | 91% | 1015.6 hPa | 0 mm | - | 0 W/m² | - |
| 1777433756 | 8.89° C | 90% | 1015.9 hPa | 0 mm | - | 0 W/m² | - |
| 1777433452 | 9.44° C | 90% | 1015.9 hPa | 0 mm | - | 0 W/m² | - |
| 1777433147 | 9.44° C | 90% | 1016.1 hPa | 0 mm | - | 0 W/m² | - |
| 1777432844 | 9.44° C | 90% | 1016.2 hPa | 0 mm | - | 0 W/m² | - |
| 1777432539 | 9.44° C | 90% | 1016.1 hPa | 0 mm | - | 0 W/m² | - |
| 1777432236 | 8.89° C | 89% | 1016.3 hPa | 0 mm | - | 0 W/m² | - |
| 1777431934 | 9.44° C | 89% | 1016.3 hPa | 0 mm | - | 0 W/m² | - |
* Rain latest hour (hover to see other rain measurements)
** Current wind speed in m/s (hover to see current wind gust speed)